VJC1384 VVTS-VVPC

Flight info

Callsign VJC1384
Flight time 0h 46m
Altitude 29000
Route PATMA5G PATMA W12 NOBID NOBID1N
Aircraft A21N/M-SDE3FGHIRWY/LB1

Departure

Time 2026-04-27 02:13
Airport Tan Son Nhat International Airport (VVTS)

Arrival

Time 2026-04-27 02:59
Airport Phu Cat Airport (VVPC)
Time Latitude Longitude Altitude Speed Heading
2026-04-27 01:50 10.81326 106.66116 36 ft 0 kts 95°
2026-04-27 02:00 10.81327 106.66112 35 ft 2 kts 95°
2026-04-27 02:00 10.81328 106.66097 35 ft 2 kts 95°
2026-04-27 02:00 10.81329 106.66082 34 ft 2 kts 95°
2026-04-27 02:01 10.81331 106.66066 33 ft 2 kts 95°
2026-04-27 02:01 10.81332 106.66051 33 ft 2 kts 82°
2026-04-27 02:01 10.81327 106.66036 32 ft 2 kts 57°
2026-04-27 02:01 10.81317 106.66025 33 ft 2 kts 34°
2026-04-27 02:02 10.81303 106.66019 33 ft 2 kts 11°
2026-04-27 02:02 10.81289 106.66017 34 ft 2 kts
2026-04-27 02:02 10.81277 106.66016 34 ft 0 kts
2026-04-27 02:02 10.81288 106.66017 34 ft 3 kts
2026-04-27 02:03 10.81293 106.66018 33 ft 0 kts
2026-04-27 02:05 10.81299 106.66019 33 ft 2 kts
2026-04-27 02:05 10.81333 106.66022 32 ft 6 kts
2026-04-27 02:05 10.81397 106.66028 29 ft 11 kts
2026-04-27 02:05 10.81477 106.66035 26 ft 12 kts
2026-04-27 02:06 10.81553 106.66042 25 ft 10 kts
2026-04-27 02:06 10.81627 106.66049 27 ft 10 kts
2026-04-27 02:06 10.81690 106.66055 29 ft 8 kts
2026-04-27 02:06 10.81743 106.66060 30 ft 7 kts
2026-04-27 02:07 10.81794 106.66065 31 ft 6 kts
2026-04-27 02:07 10.81839 106.66070 31 ft 7 kts 14°
2026-04-27 02:07 10.81877 106.66112 30 ft 10 kts 67°
2026-04-27 02:07 10.81906 106.66190 27 ft 13 kts 69°
2026-04-27 02:08 10.81944 106.66290 26 ft 15 kts 70°
2026-04-27 02:08 10.81981 106.66387 27 ft 14 kts 69°
2026-04-27 02:08 10.82017 106.66482 27 ft 15 kts 69°
2026-04-27 02:08 10.82058 106.66592 25 ft 17 kts 69°
2026-04-27 02:09 10.82100 106.66705 28 ft 15 kts 69°
2026-04-27 02:09 10.82137 106.66803 32 ft 14 kts 69°
2026-04-27 02:09 10.82171 106.66893 33 ft 13 kts 69°
2026-04-27 02:09 10.82204 106.66979 33 ft 10 kts 68°
2026-04-27 02:10 10.82263 106.67006 33 ft 9 kts 341°
2026-04-27 02:10 10.82283 106.66997 33 ft 2 kts 334°
2026-04-27 02:10 10.82311 106.66981 33 ft 6 kts 322°
2026-04-27 02:10 10.82348 106.66949 33 ft 7 kts 320°
2026-04-27 02:11 10.82355 106.66902 33 ft 7 kts 244°
2026-04-27 02:11 10.82343 106.66872 34 ft 2 kts 249°
2026-04-27 02:11 10.82342 106.66872 34 ft 0 kts 249°
2026-04-27 02:12 10.82310 106.66786 35 ft 40 kts 250°
2026-04-27 02:12 10.82115 106.66273 33 ft 112 kts 249°
2026-04-27 02:12 10.81759 106.65332 32 ft 170 kts 249°
2026-04-27 02:12 10.81339 106.64111 317 ft 190 kts 249°
2026-04-27 02:13 10.80864 106.62846 934 ft 194 kts 246°
2026-04-27 02:13 10.80377 106.61597 1670 ft 192 kts 246°
2026-04-27 02:13 10.79886 106.60325 2131 ft 198 kts 247°
2026-04-27 02:13 10.79370 106.58971 2404 ft 213 kts 248°
2026-04-27 02:14 10.78821 106.57519 2687 ft 228 kts 248°
2026-04-27 02:14 10.78482 106.55894 2887 ft 248 kts 275°
2026-04-27 02:14 10.79164 106.54225 3135 ft 264 kts 314°
2026-04-27 02:14 10.80725 106.53247 3504 ft 272 kts 349°
2026-04-27 02:15 10.82607 106.53297 4164 ft 270 kts 13°
2026-04-27 02:15 10.84446 106.53614 4884 ft 272 kts
2026-04-27 02:15 10.86344 106.53822 5609 ft 274 kts
2026-04-27 02:15 10.88230 106.54005 6341 ft 276 kts
2026-04-27 02:16 10.90160 106.54194 7025 ft 279 kts
2026-04-27 02:16 10.92092 106.54381 7674 ft 283 kts
2026-04-27 02:16 10.94081 106.54578 8322 ft 288 kts
2026-04-27 02:16 10.96045 106.54931 8922 ft 291 kts 22°
2026-04-27 02:17 10.97749 106.56040 9528 ft 292 kts 47°
2026-04-27 02:17 10.99008 106.57630 10161 ft 293 kts 55°
2026-04-27 02:17 11.00218 106.59364 10528 ft 306 kts 55°
2026-04-27 02:17 11.01500 106.61144 10828 ft 321 kts 54°
2026-04-27 02:18 11.02867 106.62985 11346 ft 327 kts 53°
2026-04-27 02:18 11.04242 106.64806 11965 ft 329 kts 53°
2026-04-27 02:18 11.05653 106.66660 12570 ft 331 kts 53°
2026-04-27 02:18 11.07057 106.68497 13148 ft 333 kts 52°
2026-04-27 02:19 11.08494 106.70375 13722 ft 336 kts 52°
2026-04-27 02:19 11.09923 106.72240 14256 ft 339 kts 52°
2026-04-27 02:19 11.11385 106.74150 14779 ft 342 kts 52°
2026-04-27 02:19 11.12841 106.76051 15281 ft 345 kts 52°
2026-04-27 02:20 11.14312 106.77971 15774 ft 347 kts 52°
2026-04-27 02:20 11.15813 106.79928 16268 ft 350 kts 52°
2026-04-27 02:20 11.17307 106.81874 16731 ft 353 kts 52°
2026-04-27 02:20 11.18834 106.83865 17197 ft 356 kts 52°
2026-04-27 02:21 11.20353 106.85847 17637 ft 359 kts 52°
2026-04-27 02:21 11.21905 106.87873 18086 ft 361 kts 52°
2026-04-27 02:21 11.23443 106.89883 18532 ft 363 kts 52°
2026-04-27 02:21 11.25012 106.91933 18959 ft 366 kts 52°
2026-04-27 02:22 11.26568 106.93968 19370 ft 368 kts 52°
2026-04-27 02:22 11.28155 106.96043 19772 ft 370 kts 52°
2026-04-27 02:22 11.29730 106.98105 20167 ft 373 kts 52°
2026-04-27 02:22 11.31338 107.00208 20554 ft 375 kts 52°
2026-04-27 02:23 11.32934 107.02296 20928 ft 378 kts 52°
2026-04-27 02:23 11.34601 107.04391 21310 ft 379 kts 49°
2026-04-27 02:23 11.36434 107.06309 21662 ft 382 kts 43°
2026-04-27 02:23 11.38482 107.08070 22020 ft 384 kts 38°
2026-04-27 02:24 11.40602 107.09707 22374 ft 386 kts 37°
2026-04-27 02:24 11.42778 107.11358 22733 ft 388 kts 37°
2026-04-27 02:24 11.44934 107.12993 23108 ft 390 kts 37°
2026-04-27 02:24 11.47128 107.14661 23472 ft 392 kts 37°
2026-04-27 02:25 11.49301 107.16315 23830 ft 393 kts 37°
2026-04-27 02:25 11.51512 107.18000 24187 ft 395 kts 37°
2026-04-27 02:25 11.53702 107.19671 24534 ft 397 kts 37°
2026-04-27 02:25 11.55931 107.21373 24884 ft 398 kts 37°
2026-04-27 02:26 11.58140 107.23061 25205 ft 400 kts 37°
2026-04-27 02:26 11.60391 107.24781 25528 ft 403 kts 37°
2026-04-27 02:26 11.62625 107.26491 25863 ft 404 kts 37°
2026-04-27 02:26 11.64893 107.28226 26204 ft 405 kts 37°
2026-04-27 02:27 11.67137 107.29943 26531 ft 407 kts 37°
2026-04-27 02:27 11.69420 107.31690 26892 ft 407 kts 37°
2026-04-27 02:27 11.71666 107.33409 27327 ft 405 kts 37°
2026-04-27 02:27 11.73938 107.35149 27711 ft 405 kts 37°
2026-04-27 02:28 11.76185 107.36869 28019 ft 407 kts 36°
2026-04-27 02:28 11.78474 107.38622 28334 ft 409 kts 37°
2026-04-27 02:28 11.80736 107.40355 28668 ft 410 kts 37°
2026-04-27 02:28 11.83035 107.42117 28955 ft 411 kts 36°
2026-04-27 02:29 11.87674 107.45673 28996 ft 421 kts 36°
2026-04-27 02:29 11.92367 107.49271 29009 ft 422 kts 36°
2026-04-27 02:30 11.97058 107.52870 29018 ft 421 kts 36°
2026-04-27 02:30 12.01749 107.56471 29016 ft 421 kts 36°
2026-04-27 02:31 12.06442 107.60075 29029 ft 422 kts 36°
2026-04-27 02:31 12.11141 107.63688 29041 ft 423 kts 36°
2026-04-27 02:32 12.15852 107.67309 29064 ft 423 kts 36°
2026-04-27 02:32 12.20560 107.70931 29083 ft 423 kts 36°
2026-04-27 02:33 12.25272 107.74560 29113 ft 424 kts 36°
2026-04-27 02:33 12.29980 107.78185 29124 ft 423 kts 36°
2026-04-27 02:34 12.34600 107.81930 29092 ft 424 kts 40°
2026-04-27 02:34 12.38958 107.86008 29062 ft 425 kts 42°
2026-04-27 02:35 12.43300 107.90131 28961 ft 426 kts 42°
2026-04-27 02:35 12.45452 107.92174 28704 ft 424 kts 42°
2026-04-27 02:35 12.47625 107.94236 28452 ft 423 kts 42°
2026-04-27 02:36 12.49764 107.96265 28204 ft 421 kts 42°
2026-04-27 02:36 12.51923 107.98312 27953 ft 420 kts 42°
2026-04-27 02:36 12.54047 108.00326 27705 ft 419 kts 42°
2026-04-27 02:36 12.56193 108.02365 27454 ft 417 kts 42°
2026-04-27 02:37 12.58300 108.04367 27207 ft 415 kts 42°
2026-04-27 02:37 12.60430 108.06390 26959 ft 415 kts 42°
2026-04-27 02:37 12.62526 108.08382 26712 ft 414 kts 42°
2026-04-27 02:37 12.64652 108.10386 26460 ft 412 kts 41°
2026-04-27 02:38 12.66820 108.12264 26215 ft 411 kts 38°
2026-04-27 02:38 12.69110 108.14040 25965 ft 409 kts 34°
2026-04-27 02:38 12.71425 108.15696 25719 ft 408 kts 34°
2026-04-27 02:38 12.73773 108.17356 25469 ft 406 kts 34°
2026-04-27 02:39 12.76082 108.18987 25223 ft 405 kts 34°
2026-04-27 02:39 12.78398 108.20625 24975 ft 404 kts 34°
2026-04-27 02:39 12.80707 108.22261 24727 ft 403 kts 34°
2026-04-27 02:39 12.83010 108.23892 24479 ft 402 kts 34°
2026-04-27 02:40 12.85305 108.25520 24231 ft 400 kts 34°
2026-04-27 02:40 12.87593 108.27145 23983 ft 399 kts 34°
2026-04-27 02:40 12.89877 108.28767 23732 ft 398 kts 34°
2026-04-27 02:40 12.92143 108.30377 23477 ft 396 kts 34°
2026-04-27 02:41 12.94407 108.31986 23212 ft 395 kts 34°
2026-04-27 02:41 12.96662 108.33588 22859 ft 393 kts 34°
2026-04-27 02:41 12.98908 108.35183 22449 ft 390 kts 34°
2026-04-27 02:41 13.01127 108.36762 22032 ft 387 kts 34°
2026-04-27 02:42 13.03337 108.38333 21604 ft 385 kts 34°
2026-04-27 02:42 13.05530 108.39893 21162 ft 383 kts 34°
2026-04-27 02:42 13.07710 108.41444 20721 ft 380 kts 33°
2026-04-27 02:42 13.09879 108.42988 20275 ft 378 kts 34°
2026-04-27 02:43 13.12037 108.44524 19835 ft 376 kts 34°
2026-04-27 02:43 13.14183 108.46053 19386 ft 375 kts 33°
2026-04-27 02:43 13.16319 108.47574 18936 ft 373 kts 33°
2026-04-27 02:43 13.18445 108.49088 18491 ft 371 kts 33°
2026-04-27 02:44 13.20561 108.50597 18041 ft 369 kts 33°
2026-04-27 02:44 13.22666 108.52100 17590 ft 367 kts 33°
2026-04-27 02:44 13.24761 108.53593 17141 ft 365 kts 33°
2026-04-27 02:44 13.26846 108.55080 16700 ft 363 kts 33°
2026-04-27 02:45 13.28922 108.56558 16260 ft 361 kts 33°
2026-04-27 02:45 13.30986 108.58028 15822 ft 359 kts 34°
2026-04-27 02:45 13.33040 108.59489 15396 ft 357 kts 34°
2026-04-27 02:45 13.35083 108.60940 14960 ft 355 kts 34°
2026-04-27 02:46 13.37115 108.62384 14530 ft 353 kts 34°
2026-04-27 02:46 13.39131 108.63819 14105 ft 351 kts 34°
2026-04-27 02:46 13.41135 108.65247 13679 ft 349 kts 34°
2026-04-27 02:46 13.43126 108.66665 13254 ft 347 kts 35°
2026-04-27 02:47 13.45105 108.68075 12832 ft 345 kts 35°
2026-04-27 02:47 13.47069 108.69476 12417 ft 342 kts 35°
2026-04-27 02:47 13.49021 108.70868 12003 ft 340 kts 35°
2026-04-27 02:47 13.50959 108.72250 11590 ft 337 kts 35°
2026-04-27 02:48 13.52883 108.73622 11158 ft 335 kts 35°
2026-04-27 02:48 13.54794 108.74988 10728 ft 333 kts 35°
2026-04-27 02:48 13.56687 108.76341 10380 ft 327 kts 35°
2026-04-27 02:48 13.58523 108.77656 10222 ft 314 kts 35°
2026-04-27 02:49 13.60285 108.78919 10096 ft 302 kts 35°
2026-04-27 02:49 13.61995 108.80143 9753 ft 298 kts 35°
2026-04-27 02:49 13.63694 108.81360 9365 ft 296 kts 35°
2026-04-27 02:49 13.65380 108.82567 8988 ft 294 kts 35°
2026-04-27 02:50 13.67051 108.83765 8627 ft 291 kts 35°
2026-04-27 02:50 13.68708 108.84953 8264 ft 289 kts 35°
2026-04-27 02:50 13.70354 108.86133 7900 ft 287 kts 35°
2026-04-27 02:50 13.71955 108.87348 7520 ft 285 kts 43°
2026-04-27 02:51 13.72990 108.89047 7125 ft 283 kts 74°
2026-04-27 02:51 13.73147 108.91040 6772 ft 280 kts 92°
2026-04-27 02:51 13.73065 108.93030 6424 ft 277 kts 92°
2026-04-27 02:51 13.72996 108.95005 6078 ft 275 kts 91°
2026-04-27 02:52 13.72945 108.96967 5757 ft 272 kts 91°
2026-04-27 02:52 13.72905 108.98889 5521 ft 265 kts 91°
2026-04-27 02:52 13.72870 109.00772 5255 ft 260 kts 91°
2026-04-27 02:52 13.72837 109.02597 5122 ft 249 kts 91°
2026-04-27 02:53 13.72820 109.04333 5045 ft 237 kts 86°
2026-04-27 02:53 13.73220 109.05923 4899 ft 228 kts 63°
2026-04-27 02:53 13.74058 109.07291 4662 ft 223 kts 56°
2026-04-27 02:53 13.74943 109.08588 4417 ft 219 kts 56°
2026-04-27 02:54 13.75812 109.09865 4176 ft 216 kts 56°
2026-04-27 02:54 13.76652 109.11120 3965 ft 209 kts 57°
2026-04-27 02:54 13.77465 109.12347 3672 ft 204 kts 57°
2026-04-27 02:54 13.78257 109.13534 3364 ft 200 kts 54°
2026-04-27 02:55 13.79358 109.14347 3042 ft 199 kts 18°
2026-04-27 02:55 13.80710 109.14254 2890 ft 195 kts 339°
2026-04-27 02:55 13.81892 109.13550 2844 ft 199 kts 326°
2026-04-27 02:55 13.83019 109.12711 2615 ft 197 kts 324°
2026-04-27 02:56 13.84131 109.11898 2367 ft 197 kts 326°
2026-04-27 02:56 13.85256 109.11117 2105 ft 188 kts 327°
2026-04-27 02:56 13.86296 109.10416 1891 ft 171 kts 327°
2026-04-27 02:56 13.87263 109.09769 1660 ft 157 kts 328°
2026-04-27 02:57 13.88143 109.09179 1457 ft 149 kts 328°
2026-04-27 02:57 13.89021 109.08589 1284 ft 149 kts 328°
2026-04-27 02:57 13.89884 109.08008 1104 ft 149 kts 328°
2026-04-27 02:57 13.90756 109.07420 918 ft 148 kts 328°
2026-04-27 02:58 13.91615 109.06844 720 ft 148 kts 329°
2026-04-27 02:58 13.92489 109.06267 534 ft 148 kts 328°
2026-04-27 02:58 13.93347 109.05691 359 ft 148 kts 328°
2026-04-27 02:58 13.94211 109.05099 165 ft 147 kts 328°
2026-04-27 02:59 13.95022 109.04550 98 ft 122 kts 325°
2026-04-27 02:59 13.95596 109.04166 96 ft 72 kts 326°
2026-04-27 02:59 13.95885 109.03968 96 ft 37 kts 326°
2026-04-27 02:59 13.96049 109.03857 95 ft 12 kts 327°
2026-04-27 03:00 13.96104 109.03892 95 ft 10 kts 60°
2026-04-27 03:00 13.96139 109.03951 95 ft 9 kts 58°
2026-04-27 03:00 13.96175 109.04013 95 ft 10 kts 77°
2026-04-27 03:00 13.96132 109.04068 95 ft 11 kts 147°
2026-04-27 03:01 13.96063 109.04114 95 ft 12 kts 146°
2026-04-27 03:01 13.95983 109.04168 95 ft 14 kts 147°
2026-04-27 03:01 13.95898 109.04225 96 ft 15 kts 146°
2026-04-27 03:01 13.95805 109.04288 96 ft 16 kts 146°
2026-04-27 03:02 13.95707 109.04353 96 ft 16 kts 146°
2026-04-27 03:02 13.95608 109.04420 96 ft 16 kts 147°
2026-04-27 03:02 13.95510 109.04485 96 ft 16 kts 147°
2026-04-27 03:02 13.95447 109.04539 97 ft 10 kts 108°
2026-04-27 03:03 13.95446 109.04602 97 ft 8 kts 121°
2026-04-27 03:03 13.95350 109.04669 97 ft 9 kts 146°
2026-04-27 03:03 13.95303 109.04703 97 ft 8 kts 145°
2026-04-27 03:04 13.95268 109.04730 97 ft 5 kts 125°
2026-04-27 03:04 13.95270 109.04765 97 ft 2 kts 63°
2026-04-27 03:04 13.95274 109.04772 97 ft 0 kts 58°
2026-04-27 03:04 13.95278 109.04779 97 ft 1 kts 57°
2026-04-27 03:05 13.95281 109.04784 97 ft 0 kts 58°